Regional Weather Roundup
Issued by NWS Jackson, KY

Home | Current Version | Previous Version | Graphics & Text | Print | Product List | Glossary On
Versions: 1 2 3 4 5 6 7 8 9 10 11 12 13 14 15 16 17 18 19 20 21 22 23 24 25 26 27
000
ASUS43 KJKL 060110
RWRJKL

EAST KENTUCKY HOURLY WEATHER ROUNDUP
NATIONAL WEATHER SERVICE JACKSON KY
900 PM EDT THU MAY 05 2016

NOTE: "FAIR" INDICATES FEW OR NO CLOUDS BELOW 12,000 FEET WITH
NO SIGNIFICANT WEATHER AND/OR OBSTRUCTIONS TO VISIBILITY.

* THESE REPORTS ARE NOT UNDER NWS QUALITY CONTROL AND MAY NOT
  REPORT WEATHER SUCH AS PRECIPITATION AND FOG.

KYZ079-080-083-085-087-088-110-112-115-119-120-060200
...EASTERN KENTUCKY...

CITY           SKY/WX    TMP DP  RH WIND       PRES   REMARKS
JACKSON        CLOUDY    50  42  74 NW6       29.86R
LONDON         CLOUDY    50  41  71 NW5       29.89R
SOMERSET*      CLOUDY    50  41  71 NW5       29.92R
MONTICELLO*    CLOUDY    51  43  74 NW9       29.93R
WILLIAMSBURG*  CLOUDY    48  45  87 CALM      29.90R
MIDDLESBORO*   CLOUDY    50  40  68 NW15      29.88R
HARLAN APT*    CLOUDY    48  37  66 SW6       29.86R
PIKE CO APT*   CLOUDY    49  43  79 W7        29.81R
BIG SANDY APT* CLOUDY    51  44  76 NW6       29.82R
MOREHEAD APT*  CLOUDY    50  45  81 W5        29.88R
$$

KYZ035-036-041-042-044-050-067-078-099-060200
...CENTRAL KENTUCKY...

CITY           SKY/WX    TMP DP  RH WIND       PRES   REMARKS
MT STERLING*   CLOUDY    50  45  81 NW5       29.89R
FLEMING/MASON* CLEAR     48  45  89 W6        29.87R
DANVILLE*      MOCLDY    48  43  81 NW6       29.91S
RICHMOND*      CLOUDY    50  43  76 NW7       29.89R
LEXINGTON      MOCLDY    49  44  83 W5        29.89S
FRANKFORT      PTCLDY    50  44  80 W3        29.89R
LOUISVILLE     MOCLDY    57  45  64 W9        29.90S
LEBANON*         N/A     48  45  87 SW3       29.92S
BOWLING GREEN  PTCLDY    55  44  66 NW5       29.95R
$$

KYZ091>093-OHZ055-061-077-WVZ005-015-034-035-042-060200
...SOUTHERN OHIO/WEST VIRGINIA...

CITY           SKY/WX    TMP DP  RH WIND       PRES   REMARKS
COVINGTON      MOCLDY    53  48  83 W8        29.87R
COLUMBUS       PTCLDY    55  41  59 N10       29.82R
DAYTON         MOCLDY    53  42  66 N7        29.87S
WILMINGTON     CLEAR     54  38  54 N8        29.85R
HUNTINGTON     LGT RAIN  52  47  83 W8        29.80R
CHARLESTON     LGT RAIN  51  48  89 NW8       29.77R
PINEVILLE*     DRIZZLE   46  43  90 MISG      29.82R
BECKLEY        RAIN      44  42  93 N6        29.76R FOG
$$

VAZ002-007-008-TNZ017-027-036-066-071-060200
...SOUTHWEST VIRGINIA/EAST TENNESSEE...

CITY           SKY/WX    TMP DP  RH WIND       PRES   REMARKS
WISE*          CLOUDY    43  41  93 W10G18    29.81S
BRISTOL        LGT RAIN  47  44  90 SW3       29.81R
SEVIERVILLE*   CLOUDY    50  39  66 NW5       29.87R
KNOXVILLE      MOCLDY    51  39  63 NW7       29.88R
OAK RIDGE      MOCLDY    51  37  58 CALM      29.90R
CROSSVILLE     MOCLDY    46  39  76 NW6       29.91R
NASHVILLE      CLOUDY    56  41  57 NW10      29.96R
$$

...KEY TO REMARKS...
VSB - VISIBILITY IN MILES
WCI - WIND CHILL INDEX
HX  - HEAT INDEX

$$




USA.gov is the U.S. government's official web portal to all federal, state and local government web resources and services.